Regional Weather Roundup
Issued by NWS Mobile, AL

Home | Current Version | Previous Version | Text Only | Print | Product List | Glossary On
Versions: 1 2 3 4 5 6 7 8 9 10 11 12 13 14 15 16 17 18 19 20 21 22 23 24 25 26 27 28 29 30 31 32 33 34 35 36 37 38 39 40 41 42 43 44 45 46 47 48 49
000
ASUS44 KMOB 252210
RWRMOB
REGIONAL WEATHER ROUNDUP
NATIONAL WEATHER SERVICE MOBILE AL
400 PM CST SUN JAN 25 2015

NOTE: "FAIR" INDICATES FEW OR NO CLOUDS BELOW 12,000 FEET WITH NO
      SIGNIFICANT WEATHER AND/OR OBSTRUCTIONS TO VISIBILITY.

  * THESE STATIONS ARE PART OF THE UNIVERSITY OF SOUTH ALABAMA
    MESONET AND ARE NOT UNDER NWS OR FAA QUALITY CONTROL.

ALZ061>064-252300-
COASTAL ALABAMA

CITY           SKY/WX    TMP DP  RH WIND       PRES   REMARKS
MOBILE REG APT SUNNY     59  42  53 SW18G28   29.86F
BROOKLEY FIELD SUNNY     61  45  55 SW9G21    29.88S
USA CAMPUS*    NOT AVBL
DOG RIVER*     NOT AVBL


CITY           SKY/WX    TMP DP  RH WIND       PRES   REMARKS
MOUNT VERNON*  NOT AVBL
SARALAND*      NOT AVBL
BAY MINETTE*   NOT AVBL
LOXLEY*        NOT AVBL
ROBERTSDALE*   NOT AVBL
FAIRHOPE*        N/A     57  50  77 SW15      29.88F
ELBERTA*         N/A     59  50  72 SW10      29.88F
FOLEY*         NOT AVBL
GRAND BAY*     NOT AVBL
DAUPHIN ISLND* NOT AVBL
BON SCOUR NWR* NOT AVBL
GULF SHORES    MOSUNNY   60  50  69 MISG      29.89F

$$

ALZ051>060-252300-
INTERIOR SOUTHWEST AND SOUTH CENTRAL ALABAMA

CITY           SKY/WX    TMP DP  RH WIND       PRES   REMARKS
GREENVILLE     SUNNY     63  37  38 SW9G25    29.78
EVERGREEN      SUNNY     62  36  37 SW15      29.81F
CASTLEBERRY*   NOT AVBL
ATMORE*          N/A     59  37  44 SW16      29.86R
DIXIE*           N/A     63  34  34 S6        29.81F
ANDALUSIA/OPP  SUNNY     66  37  34 SW10      29.82F
ANDALUSIA*       N/A     63  32  31 SW15      29.82F
FLORALA APT    SUNNY     62  39  42 SW15G24   29.85F
FLORALA*         N/A     63  39  42 S5        29.82F

$$

FLZ001>006-252300-
WESTERN FLORIDA PANHANDLE

CITY           SKY/WX    TMP DP  RH WIND       PRES   REMARKS
PENSACOLA      SUNNY     60  46  59 SW22G33   29.88F
NAS PENSACOLA  MOSUNNY   60  50  69 SW17G36   29.88F
MILTON         MOSUNNY   61  45  55 SW20G25   29.87S
WHTNG S FIELD  MOSUNNY   63  46  54 SW9G23    29.87S


CITY           SKY/WX    TMP DP  RH WIND       PRES   REMARKS
WALNUT HILL*   NOT AVBL
JAY*           NOT AVBL
CRESTVIEW      SUNNY     61  44  53 SW22G30   29.88F
VALPARAISO     MOSUNNY   61  49  65 SW16G25   29.89F
DESTIN         MOSUNNY   62  50  64 SW14G23   29.89F

$$

MSZ076-079-252300-
INTERIOR SOUTHEAST MISSISSIPPI

CITY           SKY/WX    TMP DP  RH WIND       PRES   REMARKS
LEAKESVILLE*   NOT AVBL
AGRICOLA*      NOT AVBL

$$

MARINE OBSERVATIONS

STATION/POSITION TIME  TEMP    WIND        PRES    WAVE
                       AIR SEA DIR/SP/G            HT/PER
                 (UTC) (F)     (DEG/KT/KT) (MB)    (FT/S)
PASCAGOULA       2200   60     220/ 11/ 15 1011.6F
PETIT BOIS ISLND 2200   60     230/ 25/ 29 1012.2F
GRAND BAY        2000   58     220/ 11     1014.0S
KATRINA CUT      2100   58     230/ 24     1012.5F
CEDAR POINT      2100   56     230/ 23     1011.5F
E DAUPHIN ISLAND 2100   58     220/ 18/ 22 1012.2F
MIDDLE BAY LIGHT 2100   56     220/ 22     1011.2F
USCG MOBILE BAY  2200   61 54  220/  6/ 12 1010.3F
STATE DOCKS      2200   62 51              1010.8F
MEAHER PARK      2100   57     200/ 14     1011.5F
WEEKS BAY        2100   59                   N/A
FORT MORGAN      2200   59     240/ 28/ 34 1011.2F
12 S ORANGE BCH  2200   61 62  230/ 23/ 29 1011.6F   4/ 5
PENSACOLA BAY    2200   62 57  230/ 10/ 18 1012.2F
64 S DAUPHIN ISL 2144   63 71  250/ 27/ 31 1014.4F   5/ 4

$$

SELECTED LOCATIONS ACROSS THE REGION

CITY           SKY/WX    TMP DP  RH WIND       PRES   REMARKS
NEW ORLEANS    MOSUNNY   66  39  37 SW21G30   29.91F
GULFPORT       SUNNY     63  40  42 SW10G22   29.87F
PASCAGOULA AP  SUNNY     60  48  64 SW9G16    29.87F
PASCAGOULA*    NOT AVBL
HATTIESBURG    SUNNY     67  38  34 SW18G30   29.81F
LAUREL         SUNNY     66  37  34 SW13G21   29.81F
MERIDIAN       PTSUNNY   64  37  36 SW14G20   29.76S
JACKSON        MOSUNNY   64  39  39 W14G30    29.80R
MONTGOMERY     SUNNY     63  35  35 S13G26    29.78F
TROY           SUNNY     62  31  31 SW12      29.80F
KINSTON*       NOT AVBL
GENEVA*        NOT AVBL
ASHFORD*         N/A     63  32  31 SW15      29.82F
DOTHAN         SUNNY     62  36  37 SW18G30   29.86F
PANAMA CITY    MOSUNNY   62  49  62 SW17G30   29.89F

$$



USA.gov is the U.S. government's official web portal to all federal, state and local government web resources and services.